Regional Weather Roundup
Issued by NWS

Home | Current Version | Previous Version | Graphics & Text | Print | Product List | Glossary On
Versions: 1 2 3 4 5 6 7 8 9 10 11 12 13 14 15 16 17 18 19 20 21 22 23 24 25 26 27
000
ASUS45 KBOI 232210
RWRID
WEATHER ROUNDUP FOR IDAHO
NATIONAL WEATHER SERVICE BOISE ID
400 PM MDT WED APR 23 2014

NOTE: "FAIR" INDICATES FEW OR NO CLOUDS BELOW 12000 FEET
WITH NO SIGNIFICANT WEATHER AND/OR OBSTRUCTIONS TO VISIBILITY

IDZ012-014-232300-
SOUTHWEST IDAHO


CITY           SKY/WX    TMP DP  RH WIND       PRES   REMARKS
BOISE          PTSUNNY   54  30  40 VRB7      30.00F
CALDWELL       CLOUDY    54  28  37 N6        30.01F
MOUNTAIN HOME  PTSUNNY   54  27  34 N9        29.99F
$$

IDZ016-017-232300-
SOUTHCENTRAL IDAHO


CITY           SKY/WX    TMP DP  RH WIND       PRES   REMARKS
BURLEY         MOSUNNY   51  30  44 SW16G25   30.00F
JEROME         PTSUNNY   51  25  36 SW16G24   30.01F
TWIN FALLS     CLOUDY    50  26  39 W8G22     30.01F
$$

IDZ019>023-232300-
SOUTHEAST IDAHO


CITY           SKY/WX    TMP DP  RH WIND       PRES   REMARKS
IDAHO FALLS    CLOUDY    47  23  38 W23G36    29.93S
POCATELLO      PTSUNNY   51  21  30 W28G37    29.98F
REXBURG        CLOUDY    49  13  23 SW15      29.90F
$$

IDZ006-010-011-018-031-032-232300-
CENTRAL IDAHO MOUNTAINS


CITY           SKY/WX    TMP DP  RH WIND       PRES   REMARKS
MCCALL         CLOUDY    38  27  64 S15G24    29.92F WCI  29
STANLEY          N/A     35  23  61 E6        29.95S WCI  30
SALMON         MOSUNNY   48  21  34 CALM      29.85F
CHALLIS        MOSUNNY   47  17  30 VRB7G20   29.89F
$$

IDZ002-004-006-007-026-232300-
NORTHERN IDAHO


CITY           SKY/WX    TMP DP  RH WIND       PRES   REMARKS
LEWISTON       CLOUDY    57  21  24 W21       29.87S
LOWELL           N/A     56  41  57 CALM      29.88F
COEUR D`ALENE  PTSUNNY   50  34  53 SW15G22   29.81S
MULLAN PASS    SNOW      27  25  92 VRB6      29.77S VSB 1/4 WCI  20
$$



USA.gov is the U.S. government's official web portal to all federal, state and local government web resources and services.